Terminal Aerodrome Forecast
Issued by NWS

Home | Current Version | Previous Version | Text Only | Print | Product List | Glossary On
Versions: 1 2 3 4 5 6 7 8 9 10 11 12 13 14 15 16
000
FTUS41 KGYX 031730
TAFPSM
TAF
KPSM 031730Z 0318/0418 27004KT P6SM FEW045 BKN250
     FM032100 10005KT P6SM VCTS SCT050CB BKN080
     FM040100 06005KT P6SM -SHRA BKN050 OVC070
     FM040500 03009KT P6SM BKN050 BKN080
     FM040900 04005KT P6SM SKC=

USA.gov is the U.S. government's official web portal to all federal, state and local government web resources and services.